Douglas, WY

6:54 AM MST on February 26, 2017 (GMT -0700)
Converse County

Weather History for KDGW - November, 2012

Change the Weather History Date:

Thursday, November 22, 2012

  Actual Average Record
Temperature  
Mean Temperature 35 °F 30 °F  
Max Temperature 51 °F 43 °F 65 °F (2006)
Min Temperature 19 °F 17 °F -12 °F (2013)
Degree Days  
Heating Degree Days 30 35  
Month to date heating degree days 497 660  
Since 1 July heating degree days 1267 1527  
Cooling Degree Days 0 0  
Month to date cooling degree days 0 0  
Year to date cooling degree days 831 486  
Moisture  
Dew Point 18 °F    
Average Humidity 55    
Maximum Humidity 85    
Minimum Humidity 24    
Precipitation  
Precipitation T in 0.02 in 0.31 in (2016)
Month to date precipitation 0.02 0.51  
Year to date precipitation 5.10 12.85  
Sea Level Pressure  
Sea Level Pressure 30.20 in    
Wind  
Wind Speed 16 mph (NW)    
Max Wind Speed 32 mph    
Max Gust Speed 39 mph    
Visibility 9 miles    
Events Snow    
T = Trace of Precipitation, MM = Missing Value Source: NWS Daily Summary

Daily Weather History Graph

Daily Weather History Graph

Search for Another Location

Airport or City:

Trip Planner

Search our weather history database for the weather conditions in past years. The results will help you decide how hot, cold, wet, or windy it might be!

Date:

Astronomy

Nov. 22, 2012 Rise Set
Actual Time 7:02 AM MST 4:32 PM MST
Civil Twilight 6:31 AM MST 5:03 PM MST
Nautical Twilight 5:56 AM MST 5:38 PM MST
Astronomical Twilight 5:23 AM MST 6:12 PM MST
Moon 1:25 PM MST (11/22) 1:18 AM MST (11/22)
Length of Visible Light 10h 31m
Length of Day
9h 29m
Waxing Gibbous, 72% of the Moon is Illuminated
Nov 22
Waxing Gibbous
Nov 28
Full
Dec 6
Last Quarter
Dec 13
New
Dec 19
First Quarter

Hourly Weather History & Observations

Time (MST) Temp. Windchill Dew Point Humidity Pressure Visibility Wind Dir Wind Speed Gust Speed Precip Events Conditions
12:53 AM 48.9 °F - 25.0 °F 39% 29.78 in 10.0 mi West 13.8 mph - N/A   Clear
1:53 AM 46.9 °F - 26.1 °F 44% 29.80 in 10.0 mi WNW 12.7 mph - N/A   Mostly Cloudy
2:24 AM 39.2 °F 29.6 °F 28.4 °F 65% 29.91 in 10.0 mi North 19.6 mph 26.5 mph N/A   Overcast
2:53 AM 37.9 °F 27.9 °F 28.9 °F 70% 29.86 in 10.0 mi North 19.6 mph 26.5 mph N/A   Scattered Clouds
3:53 AM 36.0 °F 24.7 °F 30.0 °F 79% 29.95 in 9.0 mi North 21.9 mph 31.1 mph 0.00 in Snow Light Snow
4:14 AM 33.8 °F 20.8 °F 28.4 °F 81% 30.03 in 2.5 mi NNW 26.5 mph 32.2 mph 0.00 in Snow Light Snow
4:22 AM 32.0 °F 18.6 °F 28.4 °F 87% 30.02 in 1.8 mi North 25.3 mph 35.7 mph 0.00 in Snow Light Snow
4:27 AM 32.0 °F 18.6 °F 28.4 °F 87% 30.04 in 3.0 mi North 25.3 mph 35.7 mph 0.00 in Snow Light Snow
4:53 AM 32.0 °F 19.2 °F 27.0 °F 82% 30.05 in 9.0 mi NNW 23.0 mph 31.1 mph 0.00 in   Overcast
5:53 AM 30.9 °F 19.4 °F 26.1 °F 82% 30.12 in 10.0 mi NW 17.3 mph 23.0 mph 0.00 in   Mostly Cloudy
6:53 AM 30.0 °F 19.1 °F 25.0 °F 82% 30.14 in 10.0 mi NW 15.0 mph - N/A   Scattered Clouds
7:53 AM 30.0 °F 22.4 °F 24.1 °F 79% 30.16 in 10.0 mi WNW 8.1 mph - N/A   Clear
8:53 AM 34.0 °F 28.0 °F 27.0 °F 75% 30.17 in 10.0 mi WNW 6.9 mph - N/A   Clear
9:53 AM 41.0 °F 31.4 °F 21.0 °F 45% 30.17 in 10.0 mi West 21.9 mph - N/A   Clear
10:53 AM 42.1 °F 31.9 °F 15.1 °F 34% 30.19 in 10.0 mi WNW 26.5 mph 34.5 mph N/A   Clear
11:53 AM 44.1 °F 34.6 °F 10.9 °F 26% 30.19 in 10.0 mi WNW 26.5 mph 36.8 mph N/A   Clear
12:53 PM 45.0 °F 36.2 °F 10.0 °F 24% 30.19 in 10.0 mi NNW 24.2 mph 35.7 mph N/A   Mostly Cloudy
1:53 PM 43.0 °F 33.3 °F 9.0 °F 25% 30.22 in 10.0 mi NW 25.3 mph 33.4 mph N/A   Clear
2:53 PM 42.1 °F 32.1 °F 9.0 °F 26% 30.28 in 10.0 mi NW 25.3 mph 38.0 mph N/A   Clear
3:53 PM 39.9 °F 30.0 °F 8.1 °F 27% 30.33 in 10.0 mi NW 21.9 mph 31.1 mph N/A   Clear
4:53 PM 36.0 °F 25.0 °F 5.0 °F 27% 30.38 in 10.0 mi NNW 20.7 mph 27.6 mph N/A   Clear
5:53 PM 33.1 °F 23.4 °F 7.0 °F 34% 30.43 in 10.0 mi NW 13.8 mph 18.4 mph N/A   Clear
6:53 PM 27.0 °F 20.5 °F 6.1 °F 41% 30.49 in 10.0 mi WNW 5.8 mph - N/A   Clear
7:53 PM 30.9 °F 22.2 °F 10.0 °F 42% 30.51 in 10.0 mi WNW 10.4 mph 21.9 mph N/A   Clear
8:53 PM 24.1 °F 14.4 °F 8.1 °F 51% 30.55 in 10.0 mi WNW 9.2 mph - N/A   Clear
9:53 PM 24.1 °F - 9.0 °F 53% 30.55 in 10.0 mi Calm Calm - N/A   Clear
10:53 PM 21.9 °F 17.2 °F 9.0 °F 58% 30.55 in 10.0 mi NW 3.5 mph - N/A   Clear
11:53 PM 19.9 °F 14.9 °F 9.0 °F 62% 30.56 in 10.0 mi North 3.5 mph - N/A   Clear